Regional Weather Roundup
Issued by NWS Green Bay, WI

Home | Current Version | Previous Version | Graphics & Text | Print | Product List | Glossary Off
Versions: 1 2 3 4 5 6 7 8 9 10 11 12 13 14 15 16 17 18 19 20 21 22 23 24 25 26 27 28 29 30 31 32 33 34 35 36 37 38 39 40 41 42 43 44 45 46 47 48 49 50

000
ASUS43 KGRB 270959
RWRGRB

NORTH-CENTRAL AND NORTHEAST WISCONSIN REGIONAL WEATHER ROUNDUP
NATIONAL WEATHER SERVICE GREEN BAY WI
400 AM CST TUE JAN 27 2015

WIZ005-009-010>012-018-019-271100-
NORTH CENTRAL WISCONSIN

CITY           SKY/WX    TMP DP  RH WIND       PRES   REMARKS
IRONWOOD       CLOUDY    19  18  93 CALM      30.02R
MANITOWISH WTR NOT AVBL
ARBOR VITAE    NOT AVBL
EAGLE RIVER    NOT AVBL
LAND O LAKES   NOT AVBL
RHINELANDER    CLOUDY    20  17  88 CALM      30.02R
PHILLIPS       NOT AVBL
ANTIGO         NOT AVBL
TOMAHAWK       NOT AVBL
MERRILL        NOT AVBL
$$

WIZ013-073-271100-
NORTHEAST WISCONSIN

CITY           SKY/WX    TMP DP  RH WIND       PRES   REMARKS
IRON MOUNTAIN  CLOUDY    19  16  88 CALM      30.05R
MARINETTE      CLOUDY    18  16  93 CALM      30.07R
$$

WIZ017-030-035>037-045-271100-
CENTRAL WISCONSIN

CITY           SKY/WX    TMP DP  RH WIND       PRES   REMARKS
MEDFORD        NOT AVBL
WAUSAU         CLOUDY    22  19  89 N3        30.02R
MOSINEE        NOT AVBL
MARSHFIELD     CLOUDY    23  20  88 N8        30.03R FOG
WISC RAPIDS    CLOUDY    23  19  85 N6        30.05R
STEVENS POINT  NOT AVBL
WAUPACA        NOT AVBL
SHAWANO        NOT AVBL
CLINTONVILLE   NOT AVBL
$$

WIZ038-039-048-051-271100-
FOX VALLEY

CITY           SKY/WX    TMP DP  RH WIND       PRES   REMARKS
NWS GREEN BAY  CLOUDY    24  20  84 NE5       30.06R
APPLETON       NOT AVBL
OSHKOSH        CLOUDY    25  20  81 NE3       30.02R
FOND DU LAC    CLOUDY    25  22  88 NE3       30.02R FOG
$$

WIZ022-050-052-271100-
EAST CENTRAL WISCONSIN

CITY           SKY/WX    TMP DP  RH WIND       PRES   REMARKS
STURGEON BAY   MOCLDY    19  16  86 NE5       30.08R
MANITOWOC      NOT AVBL
SHEBOYGAN      CLOUDY    25  19  78 E7        30.03R
$$

LMZ563-521-522-541>543-271100-
LAKESHORE

STATION/POSITION TIME  TEMP    WIND        PRES    VSBY  WAVE
                       AIR SEA DIR/SP/G                  HT/PER
                 (UTC) (F)     (DEG/KT/KT) (MB)    (MI)  (FT/S)
SHEBOYGAN LKSHOR 0900   26      80/ 12/ 14 1017.7R
KEWAUNEE LKSHORE 0900   25     100/  6/  9 1016.8R
NORTHPORT PIER   0900   24     120/  7/ 10 1018.3R
SISTER BAY LKSHO 0900   22        CALM       N/A
CHAMBERS ISLAND  0900   20      CALM  /  3 1018.6R
MENOMINEE LKSHOR 0900   12      20/  4     1019.2R
$$


USA.gov is the U.S. government's official web portal to all federal, state and local government web resources and services.